Tracking 19817 objects as of 18-Aug-2019
HD Live streaming from Space Station
objects crossing your sky now

COSMOS 2251 DEB

Track COSMOS 2251 DEB now!
10-day predictions


NORAD ID: 33760
Int'l Code: 1993-036H
Perigee: 770.4 km
Apogee: 799.0 km
Inclination: 74.0 °
Period: 100.4 minutes
Semi major axis: 7155 km
RCS: 0.111 m2 (medium)
Launch date: June 16, 1993
Source: Commonwealth of Independent States (former USSR) (CIS)
Launch site: PLESETSK MISSILE AND SPACE COMPLEX (PKMTR)

Note: This is SATELLITE DEBRIS
aabbcc
Your satellite tracking list
Your tracking list is empty




NASA's NSSDC Master Catalog

Two Line Element Set (TLE):
1 33760U 93036H   19229.24502150  .00000002  00000-0  99127-5 0  9997
2 33760  74.0318 193.0447 0019973 136.6166 327.6339 14.34246181550131
Source of the keplerian elements: AFSPC